Addison, TX

5:04 AM CDT on August 29, 2016 (GMT -0500)
Addison

Weather History for KADS - May, 2013

Change the Weather History Date:

Friday, May 24, 2013

  Actual Average Record
Temperature  
Mean Temperature 77 °F -  
Max Temperature 86 °F 84 °F 95 °F (2000)
Min Temperature 68 °F 66 °F 64 °F (1999)
Cooling Degree Days 12    
Growing Degree Days 27 (Base 50)    
Moisture  
Dew Point 68 °F    
Average Humidity 74    
Maximum Humidity 100    
Minimum Humidity 55    
Precipitation  
Precipitation 0.17 in - - ()
Sea Level Pressure  
Sea Level Pressure 30.08 in    
Wind  
Wind Speed 8 mph (ESE)    
Max Wind Speed 15 mph    
Max Gust Speed 28 mph    
Visibility 9 miles    
Events Rain , Thunderstorm    
Averages and records for this station are not official NWS values.
T = Trace of Precipitation, MM = Missing Value Source: NWS Daily Summary

Daily Weather History Graph

Daily Weather History Graph

Search for Another Location

Airport or City:

Trip Planner

Search our weather history database for the weather conditions in past years. The results will help you decide how hot, cold, wet, or windy it might be!

Date:

Astronomy

May. 24, 2013 Rise Set
Actual Time 6:22 AM CDT 8:26 PM CDT
Civil Twilight 5:54 AM CDT 8:54 PM CDT
Nautical Twilight 5:21 AM CDT 9:27 PM CDT
Astronomical Twilight 4:44 AM CDT 10:04 PM CDT
Moon 8:10 PM CDT (5/24) 5:53 AM CDT (5/24)
Length of Visible Light 14h 59m
Length of Day
14h 03m
Full, 100% of the Moon is Illuminated
May 24
Full
May 24
Full
May 31
Last Quarter
Jun 8
New
Jun 16
First Quarter

Hourly Weather History & Observations

Time (CDT) Temp. Heat Index Dew Point Humidity Pressure Visibility Wind Dir Wind Speed Gust Speed Precip Events Conditions
12:15 AM 78.8 °F - 68.0 °F 69% 30.01 in 10.0 mi SE 10.4 mph - N/A   Clear
12:35 AM 78.8 °F - 68.0 °F 69% 30.03 in 10.0 mi East 6.9 mph - N/A   Clear
12:55 AM 78.8 °F - 68.0 °F 69% 30.03 in 10.0 mi ESE 8.1 mph - N/A   Clear
1:15 AM 78.8 °F - 66.2 °F 65% 30.03 in 10.0 mi ESE 8.1 mph - N/A   Clear
1:35 AM 78.8 °F - 66.2 °F 65% 30.02 in 10.0 mi SE 10.4 mph - N/A   Clear
1:55 AM 78.8 °F - 66.2 °F 65% 30.03 in 10.0 mi ESE 8.1 mph - N/A   Clear
2:15 AM 78.8 °F - 66.2 °F 65% 30.03 in 10.0 mi East 6.9 mph - N/A   Clear
2:35 AM 78.8 °F - 66.2 °F 65% 30.03 in 10.0 mi SE 9.2 mph - N/A   Clear
2:55 AM 77.0 °F - 66.2 °F 69% 30.03 in 10.0 mi SE 5.8 mph - N/A   Clear
3:15 AM 77.0 °F - 64.4 °F 65% 30.03 in 10.0 mi East 4.6 mph - N/A   Clear
3:35 AM 77.0 °F - 66.2 °F 69% 30.04 in 10.0 mi ESE 4.6 mph - N/A   Clear
3:55 AM 77.0 °F - 66.2 °F 69% 30.04 in 10.0 mi East 5.8 mph - N/A   Clear
4:15 AM 77.0 °F - 66.2 °F 69% 30.04 in 10.0 mi ESE 5.8 mph - N/A   Clear
4:35 AM 77.0 °F - 68.0 °F 74% 30.05 in 10.0 mi SE 4.6 mph - N/A   Clear
4:55 AM 77.0 °F - 68.0 °F 74% 30.04 in 10.0 mi ESE 6.9 mph - N/A   Clear
5:15 AM 75.2 °F - 68.0 °F 78% 30.04 in 10.0 mi East 5.8 mph - N/A   Clear
5:35 AM 75.2 °F - 68.0 °F 78% 30.05 in 10.0 mi East 5.8 mph - N/A   Clear
5:47 AM 75.2 °F - 68.0 °F 78% 30.05 in 10.0 mi East 5.8 mph - N/A   Overcast
5:55 AM 73.4 °F - 68.0 °F 83% 30.06 in 10.0 mi East 4.6 mph - N/A   Clear
6:47 AM 73.4 °F - 68.0 °F 83% 30.07 in 10.0 mi East 8.1 mph - N/A   Overcast
7:47 AM 75.2 °F - 69.8 °F 83% 30.11 in 5.0 mi East 8.1 mph - N/A   Haze
8:59 AM 77.0 °F - 69.8 °F 78% 30.13 in 7.0 mi ESE 9.2 mph - N/A   Overcast
9:47 AM 78.8 °F - 69.8 °F 74% 30.13 in 7.0 mi East 9.2 mph - N/A   Mostly Cloudy
10:47 AM 80.6 °F 83.9 °F 69.8 °F 70% 30.14 in 7.0 mi SE 6.9 mph - N/A   Mostly Cloudy
11:47 AM 82.4 °F 86.3 °F 69.8 °F 66% 30.15 in 7.0 mi ESE 15.0 mph - N/A   Overcast
12:47 PM 84.2 °F 88.4 °F 69.8 °F 62% 30.15 in 7.0 mi SE 11.5 mph 19.6 mph N/A   Mostly Cloudy
1:47 PM 82.4 °F 85.4 °F 68.0 °F 62% 30.13 in 9.0 mi SSE 13.8 mph 19.6 mph N/A   Mostly Cloudy
2:47 PM 86.0 °F 89.4 °F 68.0 °F 55% 30.10 in 10.0 mi ESE 11.5 mph 21.9 mph N/A   Scattered Clouds
3:47 PM 86.0 °F 89.4 °F 68.0 °F 55% 30.08 in 10.0 mi SE 15.0 mph - N/A   Scattered Clouds
5:47 PM 82.4 °F 86.3 °F 69.8 °F 66% 30.07 in 10.0 mi East 11.5 mph - N/A   Overcast
6:47 PM 82.4 °F 86.3 °F 69.8 °F 66% 30.08 in 7.0 mi SE 13.8 mph - N/A   Overcast
7:52 PM 80.6 °F 83.9 °F 69.8 °F 70% 30.09 in 7.0 mi ESE 9.2 mph - N/A   Overcast
8:47 PM 71.6 °F - 62.6 °F 73% 30.11 in 6.0 mi SSW 13.8 mph 27.6 mph N/A Rain Light Rain
10:15 PM 68.0 °F - 68.0 °F 100% 30.14 in 10.0 mi Calm Calm - N/A Rain , Thunderstorm Light Thunderstorms and Rain
10:35 PM 69.8 °F - 69.8 °F 100% 30.15 in 10.0 mi Calm Calm - N/A Thunderstorm Overcast
10:55 PM 69.8 °F - 69.8 °F 100% 30.19 in 10.0 mi South 8.1 mph - 0.01 in Rain Rain
11:15 PM 69.8 °F - 69.8 °F 100% 30.20 in 10.0 mi SE 8.1 mph - 0.03 in Rain Rain
11:35 PM 68.0 °F - 68.0 °F 100% 30.19 in 7.0 mi South 4.6 mph - 0.11 in Rain , Thunderstorm Heavy Thunderstorms and Rain
11:55 PM 68.0 °F - 68.0 °F 100% 30.19 in 10.0 mi Calm Calm - 0.16 in Rain Light Rain